| time (UTC) | temp F | wind direction | speed MPH | gust MPH | rain 1hr in | rain 24hr in | rain mn in | humidity % | barometer mb |
| 20260904094604 | 60 | 0 | 0.0 | 0.0 | 0.00 | 0.13 | 0.13 | 100 | 1012.3 |
| 20260904093110 | 61 | 0 | 0.0 | 0.0 | 0.00 | 0.13 | 0.13 | 100 | 1012.3 |
| 20260904091605 | 61 | 0 | 0.0 | 0.0 | 0.00 | 0.13 | 0.13 | 100 | 1012.3 |
| 20260904084604 | 62 | 0 | 0.0 | 0.0 | 0.00 | 0.15 | 0.13 | 100 | 1012.0 |
| 20260904083106 | 62 | 0 | 0.0 | 0.0 | 0.00 | 0.15 | 0.13 | 100 | 1011.9 |
| 20260904081602 | 62 | 0 | 0.0 | 0.0 | 0.00 | 0.15 | 0.13 | 100 | 1011.7 |
| 20260904080119 | 63 | 0 | 0.0 | 0.0 | 0.00 | 0.15 | 0.13 | 100 | 1011.7 |
| 20260904074558 | 63 | 0 | 0.0 | 1.0 | 0.00 | 0.26 | 0.13 | 100 | 1011.4 |
| 20260904073113 | 63 | 0 | 0.0 | 0.0 | 0.00 | 0.26 | 0.13 | 100 | 1011.7 |
| 20260904071604 | 63 | 0 | 0.0 | 0.0 | 0.02 | 0.26 | 0.13 | 100 | 1011.9 |
| 20260904064558 | 63 | 0 | 0.0 | 1.0 | 0.11 | 0.26 | 0.13 | 100 | 1012.2 |
| 20260904063113 | 63 | 0 | 0.0 | 0.0 | 0.12 | 0.26 | 0.13 | 100 | 1012.4 |
| 20260904061604 | 63 | 0 | 0.0 | 0.0 | 0.11 | 0.24 | 0.11 | 100 | 1012.7 |
| 20260904060104 | 63 | 0 | 0.0 | 0.0 | 0.05 | 0.18 | 0.05 | 100 | 1012.9 |
| 20260904054600 | 63 | 0 | 0.0 | 0.0 | 0.02 | 0.19 | 0.02 | 100 | 1013.2 |
| 20260904053120 | 62 | 0 | 0.0 | 0.0 | 0.01 | 0.18 | 0.01 | 100 | 1012.9 |
| 20260904051604 | 62 | 0 | 0.0 | 0.0 | 0.00 | 0.17 | 0.00 | 100 | 1012.9 |
| 20260904050100 | 62 | 0 | 0.0 | 0.0 | 0.00 | 0.17 | 0.00 | 100 | 1013.0 |
| 20260904044614 | 62 | 0 | 0.0 | 0.0 | 0.00 | 0.29 | 0.00 | 100 | 1013.0 |
| 20260904043109 | 62 | 0 | 0.0 | 0.0 | 0.00 | 0.29 | 0.00 | 100 | 1013.0 |
| 20260904041559 | 63 | 0 | 0.0 | 0.0 | 0.00 | 0.29 | 0.00 | 100 | 1013.1 |
| 20260904040059 | 63 | 0 | 0.0 | 0.0 | 0.00 | 0.29 | 0.00 | 100 | 1013.4 |
| 20260904034605 | 63 | 0 | 0.0 | 0.0 | 0.00 | 0.56 | 0.29 | 100 | 1013.4 |
| 20260904033101 | 63 | 0 | 0.0 | 0.0 | 0.00 | 0.56 | 0.29 | 100 | 1013.3 |
| 20260904031556 | 63 | 0 | 0.0 | 0.0 | 0.00 | 0.56 | 0.29 | 100 | 1013.5 |
| 20260904024604 | 63 | 0 | 0.0 | 0.0 | 0.00 | 0.56 | 0.29 | 100 | 1013.6 |
| 20260904023102 | 64 | 0 | 0.0 | 0.0 | 0.00 | 0.56 | 0.29 | 100 | 1013.7 |
| 20260904021613 | 64 | 0 | 0.0 | 0.0 | 0.00 | 0.56 | 0.29 | 100 | 1014.0 |
| 20260904020058 | 65 | 0 | 0.0 | 0.0 | 0.00 | 0.56 | 0.29 | 100 | 1013.9 |
| 20260904014607 | 65 | 0 | 0.0 | 0.0 | 0.00 | 0.57 | 0.29 | 100 | 1014.1 |
| 20260904013121 | 66 | 0 | 0.0 | 0.0 | 0.00 | 0.57 | 0.29 | 100 | 1014.1 |
| 20260904011647 | 66 | 0 | 0.0 | 0.0 | 0.00 | 0.57 | 0.29 | 100 | 1014.0 |
| 20260904010101 | 67 | 0 | 0.0 | 0.0 | 0.00 | 0.57 | 0.29 | 100 | 1014.0 |
| 20260904004559 | 67 | 0 | 0.0 | 0.0 | 0.00 | 0.58 | 0.29 | 100 | 1014.1 |
| 20260904003105 | 68 | 0 | 0.0 | 0.0 | 0.00 | 0.58 | 0.29 | 100 | 1013.9 |
| 20260904001652 | 69 | 0 | 0.0 | 0.0 | 0.00 | 0.58 | 0.29 | 100 | 1013.8 |
| 20260904000109 | 70 | 0 | 0.0 | 0.0 | 0.00 | 0.58 | 0.29 | 100 | 1013.8 |
| 20260903234558 | 71 | 0 | 0.0 | 1.0 | 0.00 | 0.60 | 0.29 | 100 | 1013.7 |
| 20260903233110 | 72 | 0 | 0.0 | 0.0 | 0.00 | 0.60 | 0.29 | 100 | 1013.3 |
| 20260903231604 | 72 | 0 | 0.0 | 0.0 | 0.00 | 0.60 | 0.29 | 100 | 1013.0 |
| 20260903230111 | 73 | 0 | 0.0 | 0.0 | 0.00 | 0.60 | 0.29 | 100 | 1013.1 |
| 20260903224619 | 74 | 0 | 0.0 | 0.0 | 0.00 | 0.62 | 0.29 | 100 | 1013.2 |
| 20260903223103 | 75 | 0 | 0.0 | 0.0 | 0.00 | 0.62 | 0.29 | 12 | 1013.1 |
| 20260903221604 | 76 | 0 | 0.0 | 0.0 | 0.00 | 0.62 | 0.29 | 27 | 1013.1 |
| 20260903220106 | 77 | 0 | 0.0 | 0.0 | 0.00 | 0.62 | 0.29 | 62 | 1012.8 |
| 20260903214608 | 78 | 0 | 0.0 | 2.0 | 0.00 | 0.63 | 0.29 | 70 | 1013.1 |
| 20260903213102 | 79 | 236 | 0.0 | 11.0 | 0.00 | 0.63 | 0.29 | 69 | 1012.9 |
| 20260903211606 | 79 | 302 | 4.0 | 9.0 | 0.00 | 0.63 | 0.29 | 68 | 1013.0 |
| 20260903210142 | 79 | 0 | 0.0 | 2.0 | 0.00 | 0.63 | 0.29 | 70 | 1012.7 |
| 20260903204607 | 79 | 0 | 0.0 | 5.0 | 0.00 | 0.63 | 0.29 | 69 | 1012.8 |
| 20260903203100 | 80 | 263 | 4.0 | 7.0 | 0.00 | 0.63 | 0.29 | 69 | 1012.7 |
| 20260903201601 | 81 | 222 | 2.0 | 7.0 | 0.00 | 0.63 | 0.29 | 66 | 1012.8 |
| 20260903200118 | 81 | 222 | 0.0 | 4.0 | 0.00 | 0.63 | 0.29 | 65 | 1013.0 |
| 20260903194602 | 81 | 0 | 1.0 | 6.0 | 0.00 | 0.63 | 0.29 | 67 | 1013.1 |
| 20260903193103 | 81 | 274 | 3.0 | 8.0 | 0.00 | 0.63 | 0.29 | 66 | 1013.1 |
| 20260903191606 | 81 | 311 | 4.0 | 9.0 | 0.00 | 0.63 | 0.29 | 66 | 1013.1 |
| 20260903190106 | 80 | 300 | 3.0 | 13.0 | 0.00 | 0.63 | 0.29 | 67 | 1013.4 |
| 20260903184605 | 79 | 302 | 4.0 | 9.0 | 0.00 | 0.64 | 0.29 | 67 | 1013.4 |
| 20260903183108 | 78 | 302 | 6.0 | 11.0 | 0.00 | 0.64 | 0.29 | 68 | 1013.7 |
| 20260903181604 | 78 | 331 | 4.0 | 13.0 | 0.00 | 0.64 | 0.29 | 67 | 1013.8 |
| 20260903180112 | 77 | 323 | 6.0 | 10.0 | 0.00 | 0.64 | 0.29 | 67 | 1013.9 |
| 20260903174606 | 77 | 314 | 4.0 | 13.0 | 0.00 | 0.79 | 0.29 | 67 | 1013.8 |
| 20260903173107 | 76 | 308 | 1.0 | 14.0 | 0.00 | 0.79 | 0.29 | 66 | 1013.9 |
| 20260903171613 | 75 | 287 | 3.0 | 7.0 | 0.00 | 0.79 | 0.29 | 65 | 1014.0 |
| 20260903170109 | 75 | 277 | 1.0 | 8.0 | 0.00 | 0.79 | 0.29 | 65 | 1014.2 |
| 20260903164605 | 75 | 277 | 5.0 | 11.0 | 0.00 | 0.79 | 0.29 | 65 | 1014.2 |
| 20260903163107 | 75 | 306 | 9.0 | 19.0 | 0.00 | 0.79 | 0.29 | 65 | 1014.5 |
| 20260903161610 | 76 | 291 | 6.0 | 19.0 | 0.00 | 0.79 | 0.29 | 65 | 1014.5 |
| 20260903160108 | 77 | 295 | 5.0 | 15.0 | 0.00 | 0.79 | 0.29 | 64 | 1014.5 |
| 20260903154605 | 76 | 314 | 3.0 | 18.0 | 0.00 | 0.79 | 0.29 | 63 | 1014.3 |
| 20260903153110 | 75 | 290 | 6.0 | 16.0 | 0.00 | 0.79 | 0.29 | 61 | 1014.4 |
| 20260903151611 | 75 | 322 | 4.0 | 15.0 | 0.00 | 0.79 | 0.29 | 57 | 1014.4 |
| 20260903150110 | 75 | 257 | 4.0 | 12.0 | 0.00 | 0.79 | 0.29 | 44 | 1014.4 |
| 20260903144602 | 74 | 255 | 2.0 | 6.0 | 0.00 | 0.79 | 0.29 | 17 | 1014.2 |
| 20260903143112 | 73 | 202 | 1.0 | 11.0 | 0.00 | 0.79 | 0.29 | 100 | 1014.3 |
| 20260903141605 | 70 | 320 | 5.0 | 13.0 | 0.00 | 0.79 | 0.29 | 100 | 1014.4 |
| 20260903140115 | 67 | 296 | 3.0 | 13.0 | 0.00 | 0.79 | 0.29 | 100 | 1014.3 |
| 20260903134603 | 67 | 257 | 2.0 | 7.0 | 0.00 | 0.79 | 0.29 | 100 | 1014.3 |
| 20260903133113 | 66 | 197 | 2.0 | 6.0 | 0.00 | 0.79 | 0.29 | 100 | 1014.1 |
| 20260903131610 | 67 | 0 | 0.0 | 3.0 | 0.00 | 0.79 | 0.29 | 100 | 1014.2 |
| 20260903130105 | 66 | 0 | 0.0 | 1.0 | 0.00 | 0.79 | 0.29 | 100 | 1014.2 |
| 20260903124614 | 65 | 0 | 1.0 | 4.0 | 0.00 | 0.79 | 0.29 | 100 | 1014.2 |
| 20260903123100 | 64 | 0 | 0.0 | 0.0 | 0.00 | 0.79 | 0.29 | 100 | 1014.8 |
| 20260903121608 | 63 | 0 | 0.0 | 1.0 | 0.00 | 0.79 | 0.29 | 100 | 1014.6 |
| 20260903120106 | 62 | 159 | 0.0 | 2.0 | 0.00 | 0.79 | 0.29 | 100 | 1014.7 |
| 20260903114607 | 61 | 0 | 0.0 | 0.0 | 0.00 | 0.80 | 0.29 | 100 | 1014.7 |
| 20260903113108 | 61 | 0 | 0.0 | 0.0 | 0.00 | 0.80 | 0.29 | 100 | 1014.5 |
| 20260903111604 | 60 | 0 | 0.0 | 2.0 | 0.00 | 0.80 | 0.29 | 100 | 1014.6 |
| 20260903104559 | 60 | 162 | 0.0 | 2.0 | 0.00 | 0.80 | 0.29 | 100 | 1014.7 |
| 20260903103108 | 60 | 0 | 0.0 | 2.0 | 0.00 | 0.80 | 0.29 | 100 | 1014.9 |
| 20260903101604 | 60 | 294 | 1.0 | 3.0 | 0.00 | 0.80 | 0.29 | 100 | 1014.9 |
| 20260903100105 | 60 | 0 | 0.0 | 2.0 | 0.00 | 0.80 | 0.29 | 100 | 1015.0 |